Time,TemperatureF,DewpointF,PressureIn,WindDirection,WindDirectionDegrees,WindSpeedMPH,WindSpeedGustMPH,Humidity,HourlyPrecipIn,Conditions,Clouds,dailyrainin,SolarRadiationWatts/m^2,SoftwareType,DateUTC
2013-11-08 00:00:00,26.5,23.2,30.24,South,190,2.0,2.0,87,0.00,,,0.00,0,Wunderground v.1.15,2013-11-08 06:00:00,
2013-11-08 00:05:00,26.0,22.4,30.24,SSE,165,1.0,2.0,86,0.00,,,0.00,0,Wunderground v.1.15,2013-11-08 06:05:00,
2013-11-08 00:15:00,25.6,22.5,30.24,SSE,160,2.0,2.0,88,0.00,,,0.00,0,Wunderground v.1.15,2013-11-08 06:15:00,
2013-11-08 00:20:00,25.6,22.5,30.24,SSE,160,2.0,2.0,88,0.00,,,0.00,0,Wunderground v.1.15,2013-11-08 06:20:00,
2013-11-08 00:25:00,25.8,22.5,30.24,SSE,159,2.0,3.0,87,0.00,,,0.00,0,Wunderground v.1.15,2013-11-08 06:25:00,
2013-11-08 00:35:00,25.7,22.6,30.24,South,191,2.0,3.0,88,0.00,,,0.00,0,Wunderground v.1.15,2013-11-08 06:35:00,
2013-11-08 00:40:00,26.2,23.1,30.24,South,186,2.0,3.0,88,0.00,,,0.00,0,Wunderground v.1.15,2013-11-08 06:40:00,
2013-11-08 00:45:00,26.3,23.0,30.24,South,183,1.0,3.0,87,0.00,,,0.00,0,Wunderground v.1.15,2013-11-08 06:45:00,
2013-11-08 00:50:00,26.5,23.2,30.24,South,186,2.0,2.0,87,0.00,,,0.00,0,Wunderground v.1.15,2013-11-08 06:50:00,
2013-11-08 01:00:00,26.1,22.2,30.23,South,174,1.0,2.0,85,0.00,,,0.00,0,Wunderground v.1.15,2013-11-08 07:00:00,
2013-11-08 01:05:00,25.8,22.5,30.23,South,176,2.0,2.0,87,0.00,,,0.00,0,Wunderground v.1.15,2013-11-08 07:05:00,
2013-11-08 01:20:00,25.7,22.6,30.23,South,173,2.0,2.0,88,0.00,,,0.00,0,Wunderground v.1.15,2013-11-08 07:20:00,
2013-11-08 01:25:00,26.3,23.0,30.23,South,186,2.0,2.0,87,0.00,,,0.00,0,Wunderground v.1.15,2013-11-08 07:25:00,
2013-11-08 01:35:00,25.2,21.6,30.23,South,175,2.0,2.0,86,0.00,,,0.00,0,Wunderground v.1.15,2013-11-08 07:35:00,
2013-11-08 01:40:00,24.0,20.1,30.23,SE,142,3.0,3.0,85,0.00,,,0.00,0,Wunderground v.1.15,2013-11-08 07:40:00,
2013-11-08 01:49:00,23.4,20.6,30.23,SSE,151,3.0,5.0,89,0.00,,,0.00,0,Wunderground v.1.15,2013-11-08 07:49:00,
2013-11-08 01:55:00,23.3,20.5,30.23,SSE,151,4.0,5.0,89,0.00,,,0.00,0,Wunderground v.1.15,2013-11-08 07:55:00,
2013-11-08 02:00:00,23.3,20.5,30.23,SSE,163,4.0,4.0,89,0.00,,,0.00,0,Wunderground v.1.15,2013-11-08 08:00:00,
2013-11-08 02:05:00,23.0,20.0,30.23,SSE,150,3.0,4.0,88,0.00,,,0.00,0,Wunderground v.1.15,2013-11-08 08:05:00,
2013-11-08 02:15:00,22.6,19.8,30.22,SE,141,4.0,5.0,89,0.00,,,0.00,0,Wunderground v.1.15,2013-11-08 08:15:00,
2013-11-08 02:20:00,22.9,20.4,30.22,SE,141,5.0,5.0,90,0.00,,,0.00,0,Wunderground v.1.15,2013-11-08 08:20:00,
2013-11-08 02:25:00,23.4,20.9,30.22,SE,145,5.0,6.0,90,0.00,,,0.00,0,Wunderground v.1.15,2013-11-08 08:25:00,
2013-11-08 02:34:00,23.0,20.2,30.22,SE,142,6.0,6.0,89,0.00,,,0.00,0,Wunderground v.1.15,2013-11-08 08:34:00,
2013-11-08 02:40:00,22.6,19.8,30.21,SE,143,5.0,6.0,89,0.00,,,0.00,0,Wunderground v.1.15,2013-11-08 08:40:00,
2013-11-08 02:45:00,22.2,19.5,30.21,SE,143,5.0,6.0,89,0.00,,,0.00,0,Wunderground v.1.15,2013-11-08 08:45:00,
2013-11-08 02:50:00,22.0,19.3,30.21,SE,142,5.0,5.0,89,0.00,,,0.00,0,Wunderground v.1.15,2013-11-08 08:50:00,
2013-11-08 02:55:00,21.7,19.2,30.21,SE,139,6.0,6.0,90,0.00,,,0.00,0,Wunderground v.1.15,2013-11-08 08:55:00,
2013-11-08 03:05:00,22.2,19.7,30.20,SE,138,6.0,7.0,90,0.00,,,0.00,0,Wunderground v.1.15,2013-11-08 09:05:00,
2013-11-08 03:15:00,22.1,19.6,30.19,SE,138,6.0,6.0,90,0.00,,,0.00,0,Wunderground v.1.15,2013-11-08 09:15:00,
2013-11-08 03:20:00,22.1,19.4,30.19,SE,143,6.0,7.0,89,0.00,,,0.00,0,Wunderground v.1.15,2013-11-08 09:20:00,
2013-11-08 03:25:00,21.8,19.1,30.19,SE,139,7.0,7.0,89,0.00,,,0.00,0,Wunderground v.1.15,2013-11-08 09:25:00,
2013-11-08 03:30:00,21.9,19.2,30.19,SE,144,7.0,7.0,89,0.00,,,0.00,0,Wunderground v.1.15,2013-11-08 09:30:00,
2013-11-08 03:45:00,22.7,20.2,30.18,SSE,148,6.0,7.0,90,0.00,,,0.00,0,Wunderground v.1.15,2013-11-08 09:45:00,
2013-11-08 03:50:00,23.4,20.6,30.18,SE,143,7.0,7.0,89,0.00,,,0.00,0,Wunderground v.1.15,2013-11-08 09:50:00,
2013-11-08 03:55:00,23.6,20.6,30.18,SE,144,7.0,7.0,88,0.00,,,0.00,0,Wunderground v.1.15,2013-11-08 09:55:00,
2013-11-08 04:05:00,23.4,20.1,30.17,SE,135,6.0,8.0,87,0.00,,,0.00,0,Wunderground v.1.15,2013-11-08 10:05:00,
2013-11-08 04:15:00,23.4,20.4,30.17,SE,134,9.0,9.0,88,0.00,,,0.00,0,Wunderground v.1.15,2013-11-08 10:15:00,
2013-11-08 04:20:00,23.6,20.3,30.17,SE,144,9.0,9.0,87,0.00,,,0.00,0,Wunderground v.1.15,2013-11-08 10:20:00,
2013-11-08 04:25:00,23.6,20.3,30.16,SE,140,8.0,9.0,87,0.00,,,0.00,0,Wunderground v.1.15,2013-11-08 10:25:00,
2013-11-08 04:30:00,23.4,20.1,30.16,SE,137,8.0,8.0,87,0.00,,,0.00,0,Wunderground v.1.15,2013-11-08 10:30:00,
2013-11-08 04:40:00,23.8,20.8,30.16,SE,137,6.0,6.0,88,0.00,,,0.00,0,Wunderground v.1.15,2013-11-08 10:40:00,
2013-11-08 04:45:00,24.3,21.0,30.15,SE,138,6.0,6.0,87,0.00,,,0.00,0,Wunderground v.1.15,2013-11-08 10:45:00,
2013-11-08 04:50:00,24.7,21.4,30.15,SE,133,6.0,6.0,87,0.00,,,0.00,0,Wunderground v.1.15,2013-11-08 10:50:00,
2013-11-08 04:55:00,25.3,22.0,30.15,SE,136,7.0,7.0,87,0.00,,,0.00,0,Wunderground v.1.15,2013-11-08 10:55:00,
2013-11-08 05:05:00,26.1,22.5,30.14,SE,137,6.0,7.0,86,0.00,,,0.00,0,Wunderground v.1.15,2013-11-08 11:05:00,
2013-11-08 05:15:00,26.3,22.7,30.14,SE,138,7.0,8.0,86,0.00,,,0.00,0,Wunderground v.1.15,2013-11-08 11:15:00,
2013-11-08 05:20:00,26.2,22.6,30.14,SE,142,8.0,8.0,86,0.00,,,0.00,0,Wunderground v.1.15,2013-11-08 11:20:00,
2013-11-08 05:25:00,26.3,22.4,30.13,SE,145,8.0,9.0,85,0.00,,,0.00,0,Wunderground v.1.15,2013-11-08 11:25:00,
2013-11-08 05:30:00,26.3,22.4,30.13,SE,141,8.0,8.0,85,0.00,,,0.00,0,Wunderground v.1.15,2013-11-08 11:30:00,
2013-11-08 05:40:00,25.9,22.3,30.12,SE,143,7.0,7.0,86,0.00,,,0.00,0,Wunderground v.1.15,2013-11-08 11:40:00,
2013-11-08 05:45:00,26.4,22.8,30.12,SE,143,8.0,8.0,86,0.00,,,0.00,0,Wunderground v.1.15,2013-11-08 11:45:00,
2013-11-08 05:50:00,26.8,22.9,30.12,SSE,149,9.0,12.0,85,0.00,,,0.00,0,Wunderground v.1.15,2013-11-08 11:50:00,
2013-11-08 06:00:00,27.8,23.6,30.11,SSE,148,10.0,12.0,84,0.00,,,0.00,0,Wunderground v.1.15,2013-11-08 12:00:00,
2013-11-08 06:05:00,28.1,23.6,30.11,SSE,154,8.0,12.0,83,0.00,,,0.00,0,Wunderground v.1.15,2013-11-08 12:05:00,
2013-11-08 06:15:00,29.4,24.3,30.10,SSE,165,6.0,7.0,81,0.00,,,0.00,0,Wunderground v.1.15,2013-11-08 12:15:00,
2013-11-08 06:20:00,29.9,24.5,30.09,SSE,154,7.0,7.0,80,0.00,,,0.00,0,Wunderground v.1.15,2013-11-08 12:20:00,
2013-11-08 06:25:00,30.5,24.8,30.09,SE,146,9.0,14.0,79,0.00,,,0.00,0,Wunderground v.1.15,2013-11-08 12:25:00,
2013-11-08 06:35:00,30.8,25.1,30.08,SSE,150,12.0,14.0,79,0.00,,,0.00,0,Wunderground v.1.15,2013-11-08 12:35:00,
2013-11-08 06:40:00,31.1,25.7,30.08,SSE,158,11.0,11.0,80,0.00,,,0.00,0,Wunderground v.1.15,2013-11-08 12:40:00,
2013-11-08 06:45:00,31.3,25.5,30.08,SSE,154,10.0,11.0,79,0.00,,,0.00,0,Wunderground v.1.15,2013-11-08 12:45:00,
2013-11-08 06:50:00,31.5,25.7,30.08,SSE,156,10.0,11.0,79,0.00,,,0.00,0,Wunderground v.1.15,2013-11-08 12:50:00,
2013-11-08 06:55:00,31.5,26.0,30.07,SSE,150,10.0,13.0,80,0.00,,,0.00,0,Wunderground v.1.15,2013-11-08 12:55:00,
2013-11-08 07:05:00,31.8,26.3,30.07,SSE,156,11.0,11.0,80,0.00,,,0.00,0,Wunderground v.1.15,2013-11-08 13:05:00,
2013-11-08 07:15:00,32.2,26.7,30.07,SE,144,10.0,10.0,80,0.00,,,0.00,0,Wunderground v.1.15,2013-11-08 13:15:00,
2013-11-08 07:20:00,32.5,26.7,30.07,SE,144,11.0,11.0,79,0.00,,,0.00,0,Wunderground v.1.15,2013-11-08 13:20:00,
2013-11-08 07:25:00,33.3,26.9,30.06,SE,135,13.0,14.0,77,0.00,,,0.00,5,Wunderground v.1.15,2013-11-08 13:25:00,
2013-11-08 07:35:00,33.7,27.3,30.05,SE,143,15.0,15.0,77,0.00,,,0.00,11,Wunderground v.1.15,2013-11-08 13:35:00,
2013-11-08 07:40:00,34.1,27.3,30.04,SE,138,15.0,16.0,76,0.00,,,0.00,16,Wunderground v.1.15,2013-11-08 13:40:00,
2013-11-08 07:45:00,34.5,27.4,30.04,SE,140,16.0,16.0,75,0.00,,,0.00,21,Wunderground v.1.15,2013-11-08 13:45:00,
2013-11-08 07:50:00,34.8,27.7,30.04,SSE,155,16.0,17.0,75,0.00,,,0.00,26,Wunderground v.1.15,2013-11-08 13:50:00,
2013-11-08 08:00:00,35.4,27.9,30.03,SSE,147,16.0,19.0,74,0.00,,,0.00,39,Wunderground v.1.15,2013-11-08 14:00:00,
2013-11-08 08:05:00,35.7,27.9,30.03,SE,140,17.0,19.0,73,0.00,,,0.00,44,Wunderground v.1.15,2013-11-08 14:05:00,
2013-11-08 08:15:00,35.3,27.8,30.02,SE,134,19.0,20.0,74,0.00,,,0.00,49,Wunderground v.1.15,2013-11-08 14:15:00,
2013-11-08 08:20:00,35.0,27.9,30.01,SE,141,19.0,21.0,75,0.00,,,0.00,46,Wunderground v.1.15,2013-11-08 14:20:00,
2013-11-08 08:25:00,34.9,28.1,30.01,SE,144,18.0,21.0,76,0.00,,,0.00,40,Wunderground v.1.15,2013-11-08 14:25:00,
2013-11-08 08:35:00,34.7,27.9,29.99,SE,142,18.0,18.0,76,0.00,,,0.00,53,Wunderground v.1.15,2013-11-08 14:35:00,
2013-11-08 08:40:00,34.8,28.0,29.99,SSE,159,18.0,21.0,76,0.00,,,0.00,65,Wunderground v.1.15,2013-11-08 14:40:00,
2013-11-08 08:45:00,35.1,28.0,29.99,SE,138,19.0,21.0,75,0.00,,,0.00,77,Wunderground v.1.15,2013-11-08 14:45:00,
2013-11-08 08:55:00,35.2,28.1,29.98,SE,144,19.0,20.0,75,0.00,,,0.00,104,Wunderground v.1.15,2013-11-08 14:55:00,
2013-11-08 09:00:00,35.5,28.0,29.97,SE,143,20.0,20.0,74,0.00,,,0.00,98,Wunderground v.1.15,2013-11-08 15:00:00,
2013-11-08 09:05:00,35.6,28.1,29.97,SE,140,21.0,21.0,74,0.00,,,0.00,95,Wunderground v.1.15,2013-11-08 15:05:00,
2013-11-08 09:14:00,35.9,28.1,29.96,SE,128,22.0,22.0,73,0.00,,,0.00,139,Wunderground v.1.15,2013-11-08 15:14:00,
2013-11-08 09:20:00,36.0,28.2,29.95,SE,132,22.0,22.0,73,0.00,,,0.00,142,Wunderground v.1.15,2013-11-08 15:20:00,
2013-11-08 09:25:00,36.2,28.0,29.95,SE,138,23.0,26.0,72,0.00,,,0.00,158,Wunderground v.1.15,2013-11-08 15:25:00,
2013-11-08 09:30:00,36.4,28.2,29.94,SE,134,25.0,25.0,72,0.00,,,0.00,163,Wunderground v.1.15,2013-11-08 15:30:00,
2013-11-08 09:35:00,36.6,28.1,29.93,SE,140,26.0,31.0,71,0.00,,,0.00,179,Wunderground v.1.15,2013-11-08 15:35:00,
2013-11-08 09:45:00,36.7,28.2,29.92,SE,143,27.0,31.0,71,0.00,,,0.00,200,Wunderground v.1.15,2013-11-08 15:45:00,
2013-11-08 09:50:00,36.7,28.2,29.92,SE,144,26.0,26.0,71,0.00,,,0.00,207,Wunderground v.1.15,2013-11-08 15:50:00,
2013-11-08 09:55:00,36.6,28.4,29.91,SE,139,26.0,26.0,72,0.00,,,0.00,330,Wunderground v.1.15,2013-11-08 15:55:00,
2013-11-08 10:05:00,37.0,28.5,29.90,SE,134,27.0,30.0,71,0.00,,,0.00,141,Wunderground v.1.15,2013-11-08 16:05:00,
2013-11-08 10:14:00,37.4,28.5,29.90,SE,146,27.0,27.0,70,0.00,,,0.00,148,Wunderground v.1.15,2013-11-08 16:14:00,
2013-11-08 10:20:00,37.6,28.3,29.90,SSE,168,27.0,27.0,69,0.00,,,0.00,160,Wunderground v.1.15,2013-11-08 16:20:00,
2013-11-08 10:25:00,37.9,28.6,29.89,SSE,152,28.0,31.0,69,0.00,,,0.00,185,Wunderground v.1.15,2013-11-08 16:25:00,
2013-11-08 10:30:00,37.9,28.6,29.89,SE,144,29.0,29.0,69,0.00,,,0.00,229,Wunderground v.1.15,2013-11-08 16:30:00,
2013-11-08 10:40:00,38.1,29.2,29.87,SSE,147,27.0,30.0,70,0.00,,,0.00,313,Wunderground v.1.15,2013-11-08 16:40:00,
2013-11-08 10:45:00,38.0,29.1,29.87,SE,143,28.0,32.0,70,0.00,,,0.00,225,Wunderground v.1.15,2013-11-08 16:45:00,
2013-11-08 10:50:00,38.3,29.0,29.86,SE,139,29.0,40.0,69,0.00,,,0.00,316,Wunderground v.1.15,2013-11-08 16:50:00,
2013-11-08 11:00:00,38.8,29.5,29.85,SE,142,30.0,30.0,69,0.00,,,0.00,548,Wunderground v.1.15,2013-11-08 17:00:00,
2013-11-08 11:05:00,38.9,30.3,29.84,SE,144,28.0,30.0,71,0.00,,,0.00,221,Wunderground v.1.15,2013-11-08 17:05:00,
2013-11-08 11:15:00,39.5,30.2,29.83,SE,142,31.0,31.0,69,0.00,,,0.00,251,Wunderground v.1.15,2013-11-08 17:15:00,
2013-11-08 11:20:00,39.7,30.4,29.82,SE,143,32.0,35.0,69,0.00,,,0.00,322,Wunderground v.1.15,2013-11-08 17:20:00,
2013-11-08 11:25:00,40.1,30.7,29.83,SE,142,32.0,35.0,69,0.00,,,0.00,455,Wunderground v.1.15,2013-11-08 17:25:00,
2013-11-08 11:35:00,40.6,31.2,29.82,SSE,151,31.0,36.0,69,0.00,,,0.00,577,Wunderground v.1.15,2013-11-08 17:35:00,
2013-11-08 11:40:00,40.4,31.4,29.81,SSE,157,31.0,33.0,70,0.00,,,0.00,454,Wunderground v.1.15,2013-11-08 17:40:00,
2013-11-08 11:45:00,40.0,31.0,29.80,SE,143,31.0,33.0,70,0.00,,,0.00,350,Wunderground v.1.15,2013-11-08 17:45:00,
2013-11-08 11:54:00,40.7,31.7,29.79,SSE,153,31.0,31.0,70,0.00,,,0.00,675,Wunderground v.1.15,2013-11-08 17:54:00,
2013-11-08 12:00:00,40.6,31.9,29.79,SSE,150,30.0,30.0,71,0.00,,,0.00,325,Wunderground v.1.15,2013-11-08 18:00:00,
2013-11-08 12:05:00,40.6,31.6,29.78,SE,144,30.0,33.0,70,0.00,,,0.00,504,Wunderground v.1.15,2013-11-08 18:05:00,
2013-11-08 12:15:00,40.6,31.9,29.76,SE,146,30.0,32.0,71,0.00,,,0.00,350,Wunderground v.1.15,2013-11-08 18:15:00,
2013-11-08 12:20:00,40.6,32.3,29.76,SE,142,30.0,34.0,72,0.00,,,0.00,306,Wunderground v.1.15,2013-11-08 18:20:00,
2013-11-08 12:25:00,40.5,32.2,29.75,SE,142,29.0,34.0,72,0.00,,,0.00,255,Wunderground v.1.15,2013-11-08 18:25:00,
2013-11-08 12:35:00,40.9,32.6,29.74,SSE,150,31.0,34.0,72,0.00,,,0.00,248,Wunderground v.1.15,2013-11-08 18:35:00,
2013-11-08 12:40:00,40.9,32.9,29.74,SE,146,29.0,34.0,73,0.00,,,0.00,236,Wunderground v.1.15,2013-11-08 18:40:00,
2013-11-08 12:45:00,40.8,32.8,29.73,SE,138,28.0,34.0,73,0.00,,,0.00,158,Wunderground v.1.15,2013-11-08 18:45:00,
2013-11-08 12:55:00,40.6,33.0,29.73,SSE,151,25.0,27.0,74,0.00,,,0.00,160,Wunderground v.1.15,2013-11-08 18:55:00,
2013-11-08 13:00:00,40.4,33.1,29.73,SSE,159,22.0,22.0,75,0.00,,,0.00,192,Wunderground v.1.15,2013-11-08 19:00:00,
2013-11-08 13:05:00,40.3,33.7,29.73,SSE,148,18.0,22.0,77,0.00,,,0.00,243,Wunderground v.1.15,2013-11-08 19:05:00,
2013-11-08 13:15:00,40.8,33.8,29.72,SE,138,19.0,21.0,76,0.00,,,0.00,243,Wunderground v.1.15,2013-11-08 19:15:00,
2013-11-08 13:20:00,41.1,34.1,29.71,SSE,148,19.0,19.0,76,0.00,,,0.00,213,Wunderground v.1.15,2013-11-08 19:20:00,
2013-11-08 13:25:00,41.4,34.4,29.71,SSE,153,19.0,19.0,76,0.00,,,0.00,204,Wunderground v.1.15,2013-11-08 19:25:00,
2013-11-08 13:35:00,41.5,34.5,29.71,SE,142,19.0,25.0,76,0.00,,,0.00,134,Wunderground v.1.15,2013-11-08 19:35:00,
2013-11-08 13:40:00,41.5,34.5,29.70,SSE,155,20.0,20.0,76,0.00,,,0.00,118,Wunderground v.1.15,2013-11-08 19:40:00,
2013-11-08 13:49:00,41.7,34.7,29.69,SSE,152,21.0,24.0,76,0.00,,,0.00,148,Wunderground v.1.15,2013-11-08 19:49:00,
2013-11-08 13:55:00,41.8,34.5,29.70,SE,140,20.0,24.0,75,0.00,,,0.00,125,Wunderground v.1.15,2013-11-08 19:55:00,
2013-11-08 14:00:00,41.8,34.8,29.69,SSE,153,19.0,19.0,76,0.00,,,0.00,148,Wunderground v.1.15,2013-11-08 20:00:00,
2013-11-08 14:05:00,41.8,34.8,29.69,SSE,148,18.0,19.0,76,0.00,,,0.00,139,Wunderground v.1.15,2013-11-08 20:05:00,
2013-11-08 14:15:00,41.9,35.2,29.68,SE,146,18.0,19.0,77,0.00,,,0.00,185,Wunderground v.1.15,2013-11-08 20:15:00,
2013-11-08 14:24:00,42.2,35.8,29.67,SSE,153,16.0,21.0,78,0.00,,,0.00,188,Wunderground v.1.15,2013-11-08 20:24:00,
2013-11-08 14:30:00,42.3,35.9,29.67,SE,140,17.0,17.0,78,0.00,,,0.00,183,Wunderground v.1.15,2013-11-08 20:30:00,
2013-11-08 14:35:00,42.5,36.1,29.67,SE,140,15.0,17.0,78,0.00,,,0.00,139,Wunderground v.1.15,2013-11-08 20:35:00,
2013-11-08 14:40:00,42.7,36.3,29.66,SE,134,14.0,16.0,78,0.00,,,0.00,142,Wunderground v.1.15,2013-11-08 20:40:00,
2013-11-08 14:50:00,43.3,36.6,29.66,SSE,148,14.0,14.0,77,0.00,,,0.00,148,Wunderground v.1.15,2013-11-08 20:50:00,
2013-11-08 14:55:00,43.5,36.8,29.66,South,171,12.0,14.0,77,0.00,,,0.00,153,Wunderground v.1.15,2013-11-08 20:55:00,
2013-11-08 15:00:00,43.4,37.0,29.66,SSE,168,10.0,10.0,78,0.00,,,0.00,137,Wunderground v.1.15,2013-11-08 21:00:00,
2013-11-08 15:05:00,43.4,37.0,29.66,SSE,152,9.0,10.0,78,0.00,,,0.00,127,Wunderground v.1.15,2013-11-08 21:05:00,
2013-11-08 15:15:00,43.5,37.4,29.66,SSE,159,11.0,11.0,79,0.00,,,0.00,72,Wunderground v.1.15,2013-11-08 21:15:00,
2013-11-08 15:25:00,43.5,37.4,29.66,SSW,192,9.0,9.0,79,0.00,,,0.00,76,Wunderground v.1.15,2013-11-08 21:25:00,
2013-11-08 15:30:00,43.6,37.5,29.66,South,188,9.0,13.0,79,0.00,,,0.00,72,Wunderground v.1.15,2013-11-08 21:30:00,
2013-11-08 15:35:00,43.7,37.6,29.66,SSW,194,9.0,13.0,79,0.00,,,0.00,67,Wunderground v.1.15,2013-11-08 21:35:00,
2013-11-08 15:45:00,44.1,37.7,29.66,SSW,202,9.0,9.0,78,0.00,,,0.00,39,Wunderground v.1.15,2013-11-08 21:45:00,
2013-11-08 15:50:00,44.4,37.6,29.66,SSW,192,9.0,9.0,77,0.00,,,0.00,33,Wunderground v.1.15,2013-11-08 21:50:00,
2013-11-08 15:55:00,44.7,37.6,29.66,SSW,212,8.0,9.0,76,0.00,,,0.00,35,Wunderground v.1.15,2013-11-08 21:55:00,
2013-11-08 16:05:00,45.4,37.9,29.67,South,185,7.0,8.0,75,0.00,,,0.00,35,Wunderground v.1.15,2013-11-08 22:05:00,
2013-11-08 16:14:00,45.6,38.1,29.66,South,191,8.0,8.0,75,0.00,,,0.00,40,Wunderground v.1.15,2013-11-08 22:14:00,
2013-11-08 16:20:00,45.6,38.1,29.66,SSW,213,7.0,7.0,75,0.00,,,0.00,32,Wunderground v.1.15,2013-11-08 22:20:00,
2013-11-08 16:25:00,45.4,37.9,29.66,NNW,330,6.0,7.0,75,0.00,,,0.00,19,Wunderground v.1.15,2013-11-08 22:25:00,
2013-11-08 16:30:00,45.3,38.2,29.66,SSW,192,6.0,10.0,76,0.00,,,0.00,11,Wunderground v.1.15,2013-11-08 22:30:00,
2013-11-08 16:40:00,45.2,38.1,29.65,South,190,9.0,9.0,76,0.00,,,0.00,11,Wunderground v.1.15,2013-11-08 22:40:00,
2013-11-08 16:45:00,44.9,38.1,29.65,South,172,8.0,9.0,77,0.00,,,0.00,9,Wunderground v.1.15,2013-11-08 22:45:00,
2013-11-08 16:50:00,44.9,38.5,29.66,SSW,211,8.0,8.0,78,0.00,,,0.00,5,Wunderground v.1.15,2013-11-08 22:50:00,
2013-11-08 16:55:00,44.7,38.3,29.66,SW,219,7.0,8.0,78,0.00,,,0.00,9,Wunderground v.1.15,2013-11-08 22:55:00,
2013-11-08 17:05:00,44.3,38.5,29.66,SW,227,4.0,6.0,80,0.00,,,0.00,5,Wunderground v.1.15,2013-11-08 23:05:00,
2013-11-08 17:15:00,44.2,38.4,29.66,SSW,206,4.0,7.0,80,0.00,,,0.00,0,Wunderground v.1.15,2013-11-08 23:15:00,
2013-11-08 17:20:00,44.2,38.4,29.65,South,181,5.0,5.0,80,0.00,,,0.00,0,Wunderground v.1.15,2013-11-08 23:20:00,
2013-11-08 17:30:00,43.9,38.4,29.66,SSW,193,5.0,5.0,81,0.00,,,0.00,0,Wunderground v.1.15,2013-11-08 23:30:00,
2013-11-08 17:40:00,43.6,38.2,29.66,South,175,4.0,4.0,81,0.00,,,0.00,0,Wunderground v.1.15,2013-11-08 23:40:00,
2013-11-08 17:45:00,43.3,38.2,29.66,SSE,159,5.0,5.0,82,0.00,,,0.00,0,Wunderground v.1.15,2013-11-08 23:45:00,
2013-11-08 17:55:00,43.1,38.3,29.66,South,184,4.0,5.0,83,0.00,,,0.00,0,Wunderground v.1.15,2013-11-08 23:55:00,
2013-11-08 18:00:00,43.3,38.5,29.66,South,188,4.0,4.0,83,0.00,,,0.00,0,Wunderground v.1.15,2013-11-09 00:00:00,
2013-11-08 18:05:00,43.7,38.9,29.66,SW,229,4.0,6.0,83,0.00,,,0.00,0,Wunderground v.1.15,2013-11-09 00:05:00,
2013-11-08 18:15:00,45.1,39.6,29.67,WSW,248,7.0,10.0,81,0.00,,,0.00,0,Wunderground v.1.15,2013-11-09 00:15:00,
2013-11-08 18:20:00,45.1,39.6,29.67,SW,217,8.0,8.0,81,0.00,,,0.00,0,Wunderground v.1.15,2013-11-09 00:20:00,
2013-11-08 18:30:00,45.4,40.2,29.67,SW,219,6.0,7.0,82,0.00,,,0.00,0,Wunderground v.1.15,2013-11-09 00:30:00,
2013-11-08 18:35:00,45.9,40.4,29.67,SSW,212,6.0,7.0,81,0.00,,,0.00,0,Wunderground v.1.15,2013-11-09 00:35:00,
2013-11-08 18:40:00,46.1,40.6,29.68,WSW,246,8.0,15.0,81,0.00,,,0.00,0,Wunderground v.1.15,2013-11-09 00:40:00,
2013-11-08 18:49:00,46.2,40.7,29.68,WSW,248,13.0,18.0,81,0.00,,,0.00,0,Wunderground v.1.15,2013-11-09 00:49:00,
2013-11-08 18:55:00,46.3,40.8,29.68,WSW,238,15.0,18.0,81,0.00,,,0.00,0,Wunderground v.1.15,2013-11-09 00:55:00,
2013-11-08 19:00:00,45.8,40.6,29.68,WSW,252,14.0,14.0,82,0.00,,,0.00,0,Wunderground v.1.15,2013-11-09 01:00:00,
2013-11-08 19:05:00,45.5,40.6,29.68,West,268,11.0,14.0,83,0.00,,,0.00,0,Wunderground v.1.15,2013-11-09 01:05:00,
2013-11-08 19:15:00,45.1,40.6,29.68,West,268,10.0,11.0,84,0.00,,,0.00,0,Wunderground v.1.15,2013-11-09 01:15:00,
2013-11-08 19:24:00,44.7,40.2,29.69,West,265,10.0,13.0,84,0.00,,,0.00,0,Wunderground v.1.15,2013-11-09 01:24:00,
2013-11-08 19:30:00,44.6,40.1,29.69,SW,228,10.0,10.0,84,0.00,,,0.00,0,Wunderground v.1.15,2013-11-09 01:30:00,
2013-11-08 19:35:00,44.3,40.1,29.69,West,266,10.0,10.0,85,0.00,,,0.00,0,Wunderground v.1.15,2013-11-09 01:35:00,
2013-11-08 19:40:00,43.9,39.7,29.69,WSW,252,10.0,10.0,85,0.00,,,0.00,0,Wunderground v.1.15,2013-11-09 01:40:00,
2013-11-08 19:45:00,43.6,39.7,29.69,WSW,249,10.0,10.0,86,0.00,,,0.00,0,Wunderground v.1.15,2013-11-09 01:45:00,
2013-11-08 19:55:00,43.3,39.4,29.69,WSW,238,9.0,10.0,86,0.00,,,0.00,0,Wunderground v.1.15,2013-11-09 01:55:00,
2013-11-08 20:00:00,43.2,39.3,29.69,SW,234,10.0,13.0,86,0.00,,,0.00,0,Wunderground v.1.15,2013-11-09 02:00:00,
2013-11-08 20:05:00,43.4,39.8,29.69,WSW,250,10.0,13.0,87,0.00,,,0.00,0,Wunderground v.1.15,2013-11-09 02:05:00,
2013-11-08 20:15:00,43.7,39.8,29.70,SW,232,11.0,11.0,86,0.00,,,0.00,0,Wunderground v.1.15,2013-11-09 02:15:00,
2013-11-08 20:25:00,43.2,39.6,29.69,WSW,245,8.0,11.0,87,0.00,,,0.00,0,Wunderground v.1.15,2013-11-09 02:25:00,
2013-11-08 20:30:00,43.2,39.9,29.69,SW,236,7.0,7.0,88,0.00,,,0.00,0,Wunderground v.1.15,2013-11-09 02:30:00,
2013-11-08 20:35:00,43.3,40.0,29.69,SW,232,7.0,8.0,88,0.00,,,0.00,0,Wunderground v.1.15,2013-11-09 02:35:00,
2013-11-08 20:40:00,43.1,39.8,29.69,WSW,238,6.0,6.0,88,0.00,,,0.00,0,Wunderground v.1.15,2013-11-09 02:40:00,
2013-11-08 20:50:00,42.7,39.7,29.70,WSW,240,3.0,4.0,89,0.00,,,0.00,0,Wunderground v.1.15,2013-11-09 02:50:00,
2013-11-08 20:55:00,42.8,39.8,29.70,WSW,238,4.0,4.0,89,0.00,,,0.00,0,Wunderground v.1.15,2013-11-09 02:55:00,
2013-11-08 21:00:00,42.7,39.7,29.70,WSW,242,4.0,5.0,89,0.00,,,0.00,0,Wunderground v.1.15,2013-11-09 03:00:00,
2013-11-08 21:05:00,42.8,40.1,29.70,SW,218,4.0,6.0,90,0.00,,,0.00,0,Wunderground v.1.15,2013-11-09 03:05:00,
2013-11-08 21:20:00,43.0,39.7,29.71,SW,236,8.0,9.0,88,0.00,,,0.00,0,Wunderground v.1.15,2013-11-09 03:20:00,
2013-11-08 21:30:00,43.9,40.0,29.71,SW,227,10.0,11.0,86,0.00,,,0.00,0,Wunderground v.1.15,2013-11-09 03:30:00,
2013-11-08 21:35:00,43.6,39.4,29.71,SW,236,9.0,11.0,85,0.00,,,0.00,0,Wunderground v.1.15,2013-11-09 03:35:00,
2013-11-08 21:40:00,43.6,39.7,29.71,SW,217,8.0,11.0,86,0.00,,,0.00,0,Wunderground v.1.15,2013-11-09 03:40:00,
2013-11-08 21:50:00,43.7,39.5,29.71,SW,225,10.0,11.0,85,0.00,,,0.00,0,Wunderground v.1.15,2013-11-09 03:50:00,
2013-11-08 21:55:00,43.5,39.3,29.71,WSW,242,12.0,12.0,85,0.00,,,0.00,0,Wunderground v.1.15,2013-11-09 03:55:00,
2013-11-08 22:00:00,43.2,39.0,29.71,WSW,242,11.0,11.0,85,0.00,,,0.00,0,Wunderground v.1.15,2013-11-09 04:00:00,
2013-11-08 22:05:00,43.1,39.2,29.71,WSW,244,11.0,11.0,86,0.00,,,0.00,0,Wunderground v.1.15,2013-11-09 04:05:00,
2013-11-08 22:15:00,42.9,39.3,29.71,WSW,240,8.0,9.0,87,0.00,,,0.00,0,Wunderground v.1.15,2013-11-09 04:15:00,
2013-11-08 22:25:00,43.4,39.5,29.71,WSW,244,11.0,12.0,86,0.00,,,0.00,0,Wunderground v.1.15,2013-11-09 04:25:00,
2013-11-08 22:30:00,43.3,39.4,29.71,WSW,244,12.0,12.0,86,0.00,,,0.00,0,Wunderground v.1.15,2013-11-09 04:30:00,
2013-11-08 22:35:00,43.3,39.4,29.72,WSW,246,11.0,12.0,86,0.00,,,0.00,0,Wunderground v.1.15,2013-11-09 04:35:00,
2013-11-08 22:40:00,43.4,39.8,29.71,WSW,238,11.0,11.0,87,0.00,,,0.00,0,Wunderground v.1.15,2013-11-09 04:40:00,
2013-11-08 22:50:00,43.3,39.7,29.71,WSW,248,11.0,11.0,87,0.00,,,0.00,0,Wunderground v.1.15,2013-11-09 04:50:00,
2013-11-08 22:55:00,43.0,39.4,29.72,WSW,257,10.0,11.0,87,0.00,,,0.00,0,Wunderground v.1.15,2013-11-09 04:55:00,
2013-11-08 23:00:00,43.1,39.8,29.72,WSW,253,10.0,11.0,88,0.00,,,0.00,0,Wunderground v.1.15,2013-11-09 05:00:00,
2013-11-08 23:05:00,43.3,40.0,29.72,WSW,258,10.0,11.0,88,0.00,,,0.00,0,Wunderground v.1.15,2013-11-09 05:05:00,
2013-11-08 23:10:00,43.5,40.2,29.72,WSW,248,9.0,10.0,88,0.00,,,0.00,0,Wunderground v.1.15,2013-11-09 05:10:00,
2013-11-08 23:15:00,43.6,40.0,29.72,SW,236,10.0,10.0,87,0.00,,,0.00,0,Wunderground v.1.15,2013-11-09 05:15:00,
2013-11-08 23:25:00,43.6,40.0,29.72,WSW,252,10.0,11.0,87,0.00,,,0.00,0,Wunderground v.1.15,2013-11-09 05:25:00,
2013-11-08 23:30:00,43.4,40.1,29.73,WSW,247,10.0,10.0,88,0.00,,,0.00,0,Wunderground v.1.15,2013-11-09 05:30:00,
2013-11-08 23:35:00,43.5,40.2,29.73,WSW,251,10.0,10.0,88,0.00,,,0.00,0,Wunderground v.1.15,2013-11-09 05:35:00,
2013-11-08 23:45:00,43.2,39.9,29.73,WSW,248,9.0,10.0,88,0.00,,,0.00,0,Wunderground v.1.15,2013-11-09 05:45:00,
2013-11-08 23:50:00,43.3,40.0,29.74,WSW,245,9.0,10.0,88,0.00,,,0.00,0,Wunderground v.1.15,2013-11-09 05:50:00,
2013-11-08 23:55:00,43.3,40.3,29.74,WSW,245,10.0,12.0,89,0.00,,,0.00,0,Wunderground v.1.15,2013-11-09 05:55:00,